Toledo, OH

7:11 AM EST on January 19, 2018 (GMT -0500)
Toledo Express

Weather History for KTOL - May, 2013

Change the Weather History Date:

Thursday, May 2, 2013

  Actual Average Record
Temperature  
Mean Temperature 65 °F 55 °F  
Max Temperature 79 °F 67 °F 87 °F (1965)
Min Temperature 51 °F 44 °F 28 °F (1963)
Degree Days  
Heating Degree Days 0 10  
Month to date heating degree days 0 20  
Since 1 July heating degree days 5977 5922  
Cooling Degree Days 0 0  
Month to date cooling degree days 1 0  
Year to date cooling degree days 1 8  
Growing Degree Days 15 (Base 50)    
Moisture  
Dew Point 48 °F    
Average Humidity 57    
Maximum Humidity 83    
Minimum Humidity 30    
Precipitation  
Precipitation 0.00 in 0.10 in 0.94 in (2006)
Month to date precipitation 0.00 0.21  
Year to date precipitation 11.89 10.00  
Snow  
Snow 0.00 in 0.00 in - ()
Month to date snowfall 0.0 0.0  
Since 1 July snowfall 22.4 37.5  
Snow Depth 0.00 in    
Sea Level Pressure  
Sea Level Pressure 30.18 in    
Wind  
Wind Speed 7 mph (ESE)    
Max Wind Speed 18 mph    
Max Gust Speed 24 mph    
Visibility 10 miles    
Events      
T = Trace of Precipitation, MM = Missing Value Source: NWS Daily Summary

Daily Weather History Graph

Daily Weather History Graph

Search for Another Location

Airport or City:

Trip Planner

Search our weather history database for the weather conditions in past years. The results will help you decide how hot, cold, wet, or windy it might be!

Date:

Astronomy

May. 02, 2013 Rise Set
Actual Time 6:30 AM EDT 8:34 PM EDT
Civil Twilight 6:00 AM EDT 9:04 PM EDT
Nautical Twilight 5:23 AM EDT 9:42 PM EDT
Astronomical Twilight 4:42 AM EDT 10:23 PM EDT
Moon 2:22 AM EDT (5/2) 1:17 PM EDT (5/2)
Length of Visible Light 15h 04m
Length of Day
14h 04m
Waning Gibbous, 48% of the Moon is Illuminated
May 2
Waning Gibbous
May 9
New
May 18
First Quarter
May 25
Full
May 31
Last Quarter

Hourly Weather History & Observations

Time (EDT) Temp. Dew Point Humidity Pressure Visibility Wind Dir Wind Speed Gust Speed Precip Events Conditions
12:52 AM 57.9 °F 50.0 °F 75% 30.21 in 10.0 mi ENE 4.6 mph - N/A   Clear
1:52 AM 57.9 °F 50.0 °F 75% 30.21 in 10.0 mi ENE 3.5 mph - N/A   Clear
2:52 AM 55.9 °F 50.0 °F 80% 30.20 in 10.0 mi ENE 4.6 mph - N/A   Clear
3:52 AM 55.0 °F 48.9 °F 80% 30.19 in 10.0 mi ENE 4.6 mph - N/A   Clear
4:52 AM 54.0 °F 48.9 °F 83% 30.19 in 10.0 mi ENE 3.5 mph - N/A   Clear
5:52 AM 54.0 °F 48.9 °F 83% 30.19 in 10.0 mi ENE 3.5 mph - N/A   Clear
6:52 AM 53.1 °F 48.9 °F 86% 30.21 in 10.0 mi East 3.5 mph - N/A   Clear
7:52 AM 57.9 °F 50.0 °F 75% 30.22 in 10.0 mi SE 3.5 mph - N/A   Clear
8:52 AM 64.0 °F 51.1 °F 63% 30.23 in 10.0 mi SSE 5.8 mph - N/A   Clear
9:52 AM 68.0 °F 51.1 °F 55% 30.24 in 10.0 mi South 9.2 mph 19.6 mph N/A   Clear
10:52 AM 71.1 °F 50.0 °F 47% 30.24 in 10.0 mi South 10.4 mph 17.3 mph N/A   Mostly Cloudy
11:52 AM 73.9 °F 50.0 °F 43% 30.23 in 10.0 mi South 9.2 mph - N/A   Scattered Clouds
12:52 PM 75.0 °F 50.0 °F 41% 30.21 in 10.0 mi South 8.1 mph - N/A   Scattered Clouds
1:52 PM 77.0 °F 48.9 °F 37% 30.19 in 10.0 mi Variable 6.9 mph - N/A   Clear
2:52 PM 78.1 °F 48.0 °F 35% 30.18 in 10.0 mi ESE 13.8 mph 18.4 mph N/A   Clear
3:52 PM 78.1 °F 46.9 °F 33% 30.16 in 10.0 mi SSE 9.2 mph - N/A   Clear
4:52 PM 78.1 °F 45.0 °F 31% 30.15 in 10.0 mi SSE 12.7 mph 18.4 mph N/A   Partly Cloudy
5:52 PM 75.0 °F 48.9 °F 40% 30.14 in 10.0 mi East 16.1 mph 24.2 mph N/A   Mostly Cloudy
6:52 PM 72.0 °F 48.0 °F 43% 30.14 in 10.0 mi East 16.1 mph 21.9 mph N/A   Mostly Cloudy
7:52 PM 66.9 °F 46.0 °F 47% 30.14 in 10.0 mi East 11.5 mph - N/A   Partly Cloudy
8:52 PM 64.0 °F 44.1 °F 48% 30.14 in 10.0 mi East 5.8 mph - N/A   Clear
9:52 PM 61.0 °F 44.1 °F 54% 30.14 in 10.0 mi East 5.8 mph - N/A   Partly Cloudy
10:52 PM 59.0 °F 44.1 °F 58% 30.13 in 10.0 mi East 4.6 mph - N/A   Clear
11:52 PM 57.0 °F 45.0 °F 64% 30.13 in 10.0 mi East 3.5 mph - N/A   Clear